Home   Weather   Windsor   Past weeks

Flag for Canada Past Weather in Windsor, Ontario, Canada — Yesterday and Last 2 Weeks

Now
54 °F

Fog.


Feels Like: 49 °F
Forecast: 42 / 58 °F
Wind: 17 mph from Southwest

Location: Windsor Weather Station

Current Time: Feb 23, 2017 at 4:36:15 am

Latest Report: Feb 23, 2017 at 4:00 am


Visibility: 5 mi

Pressure: 29.64 "Hg

Humidity: 100%

Dew Point: 54 °F

Location of WindsorLocation

Past Weather in Windsor — Graph

°F

Windsor Temperature Yesterday

Maximum temperature yesterday: 63 °F (at 3:00 pm)
Minimum temperature yesterday: 39 °F (at 3:11 am)
Average temperature yesterday: 51 °F

High & Low Weather Summary for the Past Weeks

 TemperatureHumidityPressure
High66 °F (Feb 18, 3:00 pm)100% (Feb 11, 10:00 pm)30.33 "Hg (Feb 11, 10:00 pm)
Low16 °F (Feb 10, 12:00 am)26% (Feb 19, 4:00 pm)29.59 "Hg (Feb 15, 12:00 am)
Average36 °F73%29.92 "Hg
* Reported Feb 8 3:00 am — Feb 23 3:00 am, Windsor, Weather by CustomWeather, © 2017

Note: Actual official high and low records may vary slightly from our data, if they occured in-between our weather recording intervals... More about our weather records

Advertising

Windsor Weather History for the Previous 24 Hours

Scroll right to see more
 ConditionsComfort  
Time TempWeatherWind HumidityBarometerVisibility
3:00 am
Thu, Feb 23
54 °FFog.15 mph94%29.66 "Hg5 mi
2:00 am54 °FFog.17 mph100%29.67 "Hg5 mi
1:00 am55 °FFog.15 mph94%29.68 "Hg5 mi
12:00 am55 °FFog.18 mph94%29.69 "Hg5 mi
11:00 pm
Wed, Feb 22
55 °FFog.17 mph94%29.70 "Hg6 mi
10:00 pm55 °FFog.15 mph94%29.72 "Hg6 mi
9:00 pm55 °FFog.14 mph94%29.74 "Hg6 mi
8:00 pm57 °FPassing clouds.15 mph88%29.75 "Hg7 mi
7:00 pm55 °FFog.10 mph94%29.75 "Hg6 mi
6:00 pm57 °FPartly sunny.13 mph88%29.75 "Hg6 mi
5:00 pm61 °FOvercast.14 mph77%29.75 "Hg6 mi
4:00 pm61 °FPartly sunny.15 mph77%29.76 "Hg7 mi
3:00 pm63 °FOvercast.10 mph77%29.77 "Hg8 mi
2:00 pm61 °FOvercast.12 mph83%29.78 "Hg7 mi
1:00 pm61 °FMore clouds than sun.7 mph83%29.81 "Hg7 mi
12:00 pm59 °FCloudy.10 mph82%29.83 "Hg8 mi
11:00 am57 °FFog.13 mph82%29.84 "Hg6 mi
10:00 am54 °FFog.13 mph94%29.85 "Hg5 mi
9:00 am50 °FFog.8 mph94%29.87 "Hg4 mi
8:38 am48 °FFog.7 mph100%29.87 "Hg3 mi
8:00 am45 °FFog.6 mph100%29.88 "Hg2 mi
7:00 am46 °FFog.6 mph93%29.88 "Hg5 mi
6:00 am46 °FFog.5 mph100%29.89 "Hg5 mi
5:00 am46 °FFog.7 mph100%29.88 "Hg5 mi
4:00 am39 °FFog.2 mph100%29.88 "Hg5 mi
Weather by CustomWeather, © 2017

See weather overviewHow to use our weather pages